Weather reports worldwide

Advertisment
Keswick, United Kingdom (3212): temperature & dewpoint: 29.07.2020 15:00:00 - 04.08.2020 15:00:00 (BST)Keswick, United Kingdom (3212): temperature -20cm: 29.07.2020 15:00:00 - 04.08.2020 15:00:00 (BST)Keswick, United Kingdom (3212): wind speed: 29.07.2020 15:00:00 - 04.08.2020 15:00:00 (BST)Keswick, United Kingdom (3212): wind direction: 29.07.2020 15:00:00 - 04.08.2020 15:00:00 (BST)Keswick, United Kingdom (3212): reduced air pressure: 29.07.2020 15:00:00 - 04.08.2020 15:00:00 (BST)Keswick, United Kingdom (3212): visibility: 29.07.2020 15:00:00 - 04.08.2020 15:00:00 (BST)Keswick, United Kingdom (3212): precipitation: 29.07.2020 15:00:00 - 04.08.2020 15:00:00 (BST)
Date & Time tt [°C] td [°C] tt -20cm [°C] ff [km/h] ff [kn] dd ppp [hPa] vv [km] rr [mm]
04.08.2020 15:00:00 15,7 14,6 - 9 5 S 1006,9 - 1,2
04.08.2020 14:00:00 14,9 13,9 - 21 11 SSW 1008,0 - 1,0
04.08.2020 13:00:00 14,8 13,2 - 11 6 SE 1008,4 - 0,2
04.08.2020 12:00:00 14,3 12,1 - 8 4 SSE 1009,5 - 0,6
04.08.2020 11:00:00 13,4 11,7 - 13 7 ESE 1010,1 - 0,2
04.08.2020 10:00:00 12,7 10,3 17,7 8 4 E 1011,2 - 0,6
04.08.2020 09:00:00 13,4 10,5 - 9 5 S 1011,7 - 0,2
04.08.2020 08:00:00 13,2 11,4 - 5 3 ESE 1011,9 - 0,6
04.08.2020 07:00:00 12,4 10,6 - 4 2 E 1012,7 - 0,4
04.08.2020 06:00:00 12,6 9,9 - 5 3 E 1013,5 - 0,0
04.08.2020 05:00:00 11,8 9,0 - 2 1 ENE 1013,9 - 0,0
04.08.2020 04:00:00 11,1 8,8 - 5 3 E 1014,8 - 0,0
04.08.2020 03:00:00 8,8 8,3 - 2 1 SSE 1015,7 - 0,0
04.08.2020 02:00:00 8,7 8,0 - 4 2 ESE 1016,2 - 0,0
04.08.2020 01:00:00 9,1 7,8 - 5 3 E 1016,7 - 0,0
04.08.2020 00:00:00 10,7 8,5 - 4 2 E 1016,8 - 0,0
03.08.2020 23:00:00 11,6 9,2 - 2 1 SE 1017,0 - 0,0
03.08.2020 22:00:00 11,8 8,8 - 2 1 WNW 1017,0 - 0,0
03.08.2020 21:00:00 13,2 8,9 - 4 2 N 1016,9 - 0,0
03.08.2020 20:00:00 14,5 8,4 - 5 3 W 1016,7 - 0,0
03.08.2020 19:00:00 15,9 7,6 - 9 5 W 1016,3 - 0,0
03.08.2020 18:00:00 16,4 8,2 - 9 5 W 1016,4 - 0,0
03.08.2020 17:00:00 17,2 9,9 - 11 6 W 1016,3 - 0,0
03.08.2020 16:00:00 17,0 8,3 - 9 5 W 1016,3 - 0,0
03.08.2020 15:00:00 15,5 8,4 - 4 2 NW 1016,6 - 0,0
03.08.2020 14:00:00 14,2 8,5 - 8 4 WNW 1016,8 - 0,0
03.08.2020 13:00:00 15,3 8,9 - 5 3 W 1016,6 - 0,0
03.08.2020 12:00:00 14,1 9,0 - 4 2 NW 1016,8 - 0,0
03.08.2020 11:00:00 14,8 9,2 - 2 1 NW 1016,4 - 0,0
03.08.2020 10:00:00 13,8 9,6 17,9 2 1 W 1016,2 - 0,0
03.08.2020 09:00:00 13,4 9,5 - 2 1 WNW 1016,3 - 0,0
03.08.2020 08:00:00 11,5 11,5 - 4 2 S 1016,1 - 0,0
03.08.2020 07:00:00 9,6 9,6 - 2 1 E 1016,1 - 0,0
03.08.2020 06:00:00 8,5 8,3 - 0 0 N 1015,9 - 0,0
03.08.2020 05:00:00 8,8 8,6 - 2 1 SE 1015,5 - 0,0
03.08.2020 04:00:00 8,4 7,9 - 2 1 E 1015,6 - 0,0
03.08.2020 03:00:00 9,8 9,3 - 2 1 ESE 1015,6 - 0,0
03.08.2020 02:00:00 11,0 10,3 - 0 0 N 1015,5 - 0,0
03.08.2020 01:00:00 11,9 10,7 - 2 1 NNE 1015,6 - 0,6
03.08.2020 00:00:00 12,6 10,4 - 4 2 SW 1015,5 13 0,0
02.08.2020 23:00:00 11,7 10,4 - 0 0 N 1015,4 15 0,0
02.08.2020 22:00:00 12,4 10,1 - 2 1 NW 1015,4 0,3 0,0
02.08.2020 21:00:00 13,4 11,0 - 2 1 NW 1015,1 2,5 0,0
02.08.2020 20:00:00 14,5 10,0 - 8 4 W 1015,0 2,8 0,0
02.08.2020 19:00:00 14,9 10,8 - 4 2 WNW 1014,9 2,5 0,0
02.08.2020 18:00:00 15,3 9,3 - 9 5 W 1014,8 6 0,0
02.08.2020 17:00:00 16,1 10,3 - 11 6 W 1014,6 10 0,0
02.08.2020 16:00:00 16,8 9,2 - 11 6 W 1014,5 3,6 0,0
02.08.2020 15:00:00 17,0 10,4 - 8 4 WNW 1014,7 2,2 0,0
02.08.2020 14:00:00 15,9 10,4 - 9 5 WNW 1014,6 2,9 0,0
02.08.2020 13:00:00 16,4 13,1 - 11 6 W 1014,5 16 0,0
02.08.2020 12:00:00 14,5 12,5 - 8 4 W 1014,4 4,5 0,8
02.08.2020 11:00:00 13,2 12,1 - 4 2 NW 1014,2 0,2 1,6
02.08.2020 10:00:00 14,5 12,3 18,0 8 4 W 1013,8 8 0,0
02.08.2020 09:00:00 13,4 12,3 - 2 1 WNW 1013,8 1,0 1,6
02.08.2020 08:00:00 13,0 12,2 - 4 2 W 1013,4 1,1 0,0
02.08.2020 07:00:00 12,3 11,8 - 0 0 N 1013,3 0,2 0,4
02.08.2020 06:00:00 12,0 11,4 - 4 2 E 1013,3 0,1 0,6
02.08.2020 05:00:00 12,4 10,8 - 5 3 SSW 1013,4 - 0,4
02.08.2020 04:00:00 12,6 10,1 - 2 1 SSW 1013,3 0,7 0,0
02.08.2020 03:00:00 12,7 11,1 - 2 1 N 1013,4 - 0,0
02.08.2020 02:00:00 12,6 11,4 - 0 0 N 1013,6 5 0,0
02.08.2020 01:00:00 13,2 11,2 - 4 2 NW 1014,0 45 0,2
02.08.2020 00:00:00 13,7 11,5 - 4 2 NW 1014,1 3,0 0,8
01.08.2020 23:00:00 14,4 10,3 - 2 1 WSW 1014,4 45 0,0
01.08.2020 22:00:00 14,6 9,8 - 4 2 SW 1014,6 40 0,0
01.08.2020 21:00:00 14,9 10,4 - 5 3 WSW 1014,5 35 0,0
01.08.2020 20:00:00 15,9 10,0 - 8 4 WSW 1014,3 40 0,0
01.08.2020 19:00:00 16,2 9,9 - 8 4 W 1014,3 35 0,0
01.08.2020 18:00:00 17,4 11,1 - 8 4 W 1014,3 35 0,0
01.08.2020 17:00:00 17,5 10,2 - 9 5 W 1014,5 40 0,0
01.08.2020 16:00:00 18,0 10,0 - 8 4 WNW 1014,4 30 0,0
01.08.2020 15:00:00 17,4 11,9 - 8 4 W 1014,4 21 0,0
01.08.2020 14:00:00 16,9 11,4 - 5 3 WNW 1014,1 30 0,0
01.08.2020 13:00:00 16,3 11,6 - 11 6 W 1013,7 30 0,0
01.08.2020 12:00:00 16,7 13,0 - 5 3 WNW 1013,4 35 0,0
01.08.2020 11:00:00 15,7 13,2 - 9 5 W 1013,1 24 0,0
01.08.2020 10:00:00 14,4 12,9 18,2 5 3 WNW 1012,7 10 0,0
01.08.2020 09:00:00 15,1 13,8 - 4 2 WNW 1011,9 35 0,2
01.08.2020 08:00:00 16,2 14,3 - 8 4 WSW 1011,3 19 0,0
01.08.2020 07:00:00 16,1 14,6 - 0 0 N 1010,9 29 0,0
01.08.2020 06:00:00 15,7 14,7 - 0 0 N 1010,6 19 0,0
01.08.2020 05:00:00 15,6 14,9 - 0 0 N 1010,3 11 0,0
01.08.2020 04:00:00 14,9 14,1 - 0 0 N 1010,2 17 0,0
01.08.2020 03:00:00 15,4 14,3 - 4 2 E 1010,2 22 0,0
01.08.2020 02:00:00 16,0 14,7 - 8 4 ESE 1009,9 35 0,0
01.08.2020 01:00:00 16,1 14,7 - 5 3 S 1009,8 26 0,0
01.08.2020 00:00:00 16,8 14,6 - 5 3 SE 1009,5 35 0,0
31.07.2020 23:00:00 16,8 14,4 - 9 5 ESE 1009,6 45 0,0
31.07.2020 22:00:00 17,9 15,9 - 5 3 WSW 1009,1 30 0,8
31.07.2020 21:00:00 20,3 16,7 - 9 5 S 1008,2 50 0,0
31.07.2020 20:00:00 21,3 15,6 - 4 2 SE 1008,2 35 0,0
31.07.2020 19:00:00 22,5 14,7 - 8 4 SE 1008,0 50 0,0
31.07.2020 18:00:00 23,1 13,9 - 11 6 S 1007,3 50 0,0
31.07.2020 17:00:00 26,1 15,6 - 5 3 SE 1007,1 45 0,0
31.07.2020 16:00:00 27,9 15,6 - 9 5 S 1007,2 26 0,0
31.07.2020 15:00:00 28,5 14,2 - 16 9 SSW 1007,2 23 0,0
31.07.2020 14:00:00 29,0 16,6 - 9 5 SSE 1006,7 27 0,0
31.07.2020 13:00:00 27,6 15,3 - 13 7 SE 1007,1 30 0,0
31.07.2020 12:00:00 26,0 13,6 - 16 9 SE 1007,5 40 0,0
31.07.2020 11:00:00 25,2 12,6 - 8 4 ESE 1008,2 - 0,0
31.07.2020 10:00:00 24,4 15,3 17,0 4 2 NE 1009,2 - 0,0
31.07.2020 09:00:00 21,1 12,0 - 11 6 E 1009,7 - 0,0
31.07.2020 08:00:00 20,3 11,4 - 13 7 E 1010,2 - 0,0
31.07.2020 07:00:00 18,9 11,2 - 13 7 E 1010,7 - 0,0
31.07.2020 06:00:00 17,5 11,3 - 16 9 ESE 1011,0 - 0,0
31.07.2020 05:00:00 17,5 11,5 - 13 7 E 1011,3 - 0,0
31.07.2020 04:00:00 17,6 12,0 - 8 4 SE 1011,9 - 0,0
31.07.2020 03:00:00 18,3 12,2 - 8 4 E 1012,3 - 0,0
31.07.2020 02:00:00 18,8 12,7 - 11 6 E 1012,8 - 0,0
31.07.2020 01:00:00 17,8 12,5 - 8 4 E 1013,2 - 0,0
31.07.2020 00:00:00 18,2 13,2 - 9 5 E 1013,5 - 0,0
30.07.2020 23:00:00 16,4 13,7 - 4 2 E 1013,8 - 0,0
30.07.2020 22:00:00 17,8 14,2 - 4 2 SE 1014,0 - 0,0
30.07.2020 21:00:00 19,0 14,3 - 8 4 ESE 1014,0 - 0,0
30.07.2020 20:00:00 20,7 14,6 - 5 3 E 1014,3 - 0,0
30.07.2020 19:00:00 20,6 13,6 - 9 5 E 1014,7 - 0,0
30.07.2020 18:00:00 21,2 13,7 - 5 3 E 1015,0 - 0,0
30.07.2020 17:00:00 19,8 14,1 - 9 5 E 1015,6 - 0,0
30.07.2020 16:00:00 19,6 13,5 - 11 6 ESE 1015,7 - 0,0
30.07.2020 15:00:00 18,0 13,9 - 11 6 ESE 1015,9 - 0,0
30.07.2020 14:00:00 17,9 13,6 - 9 5 E 1015,9 - 0,0
30.07.2020 13:00:00 16,8 13,1 - 9 5 E 1016,3 - 0,0
30.07.2020 12:00:00 15,4 13,0 - 11 6 E 1016,5 - 0,2
30.07.2020 11:00:00 14,4 13,4 - 9 5 E 1016,5 - 0,6
30.07.2020 10:00:00 13,9 13,2 16,7 8 4 E 1016,5 - 0,6
30.07.2020 09:00:00 13,1 12,3 - 5 3 ENE 1016,6 - 0,8
30.07.2020 08:00:00 12,7 12,0 - 5 3 E 1016,7 - 0,6
30.07.2020 07:00:00 11,9 11,3 - 5 3 ENE 1016,7 - 2,0
30.07.2020 06:00:00 11,9 10,9 - 9 5 E 1016,5 - 2,0
30.07.2020 05:00:00 12,2 10,7 - 11 6 E 1016,8 - 0,8
30.07.2020 04:00:00 12,6 10,3 - 4 2 E 1017,4 - 0,0
30.07.2020 03:00:00 12,4 10,0 - 2 1 ENE 1017,5 - 0,0
30.07.2020 02:00:00 11,6 9,5 - 5 3 ESE 1017,9 - 0,0
30.07.2020 01:00:00 10,2 8,6 - 2 1 S 1018,3 - 0,0
30.07.2020 00:00:00 10,7 8,6 - 2 1 SSE 1018,2 - 0,0
29.07.2020 23:00:00 11,0 8,3 - 2 1 E 1018,7 2,7 0,0
29.07.2020 22:00:00 11,5 8,4 - 0 0 N 1019,1 1,9 0,0
29.07.2020 21:00:00 12,7 8,2 - 5 3 ESE 1018,6 1,2 0,0
29.07.2020 20:00:00 13,3 7,7 - 9 5 WSW 1018,8 14 0,0
29.07.2020 19:00:00 14,4 7,5 - 8 4 WSW 1018,7 17 0,0
29.07.2020 18:00:00 14,9 6,2 - 11 6 W 1018,8 15 0,0
29.07.2020 17:00:00 16,0 7,0 - 13 7 W 1018,8 18 0,0
29.07.2020 16:00:00 15,9 7,0 - 11 6 WSW 1018,5 9 0,0
29.07.2020 15:00:00 15,1 7,2 - 8 4 W 1018,7 10 0,0

tt = temperature
td = dewpoint
tt -20cm = temperature -20cm
ff = wind speed
dd = wind direction
ppp = reduced air pressure
vv = visibility
rr = precipitation

Next stations